{"data":{"norad_id":65606,"epoch":"2026-09-20T22:00:03.000096Z","epoch_age_seconds":75976,"freshness":"FRESH","line1":"1 65606U 25207Q   26263.91670139  .03966981  00000+0  11736+0 0  9992","line2":"2 65606  97.2849 326.4259 0001453 127.1030 140.0054 15.30946659  5740","mean_motion":15.30946659,"eccentricity":0.0001453,"inclination_deg":97.2849,"raan_deg":326.4259,"arg_perigee_deg":127.103,"mean_anomaly_deg":140.0054,"bstar":0.11736,"rev_number":574,"period_min":94.059449526517,"perigee_km":471.99111810424,"apogee_km":473.98205461843,"semimajor_km":6851.1235863613,"source":"CELESTRAK","updated_at":"2026-09-21T09:00:35.655826Z"}}